,,Stat6,,Stat2,,Stat8,,Stat9,,Stat10,,Wind1,,Wind1,
time,status,PA1M_AVG,status,PR1M_SUM,status,RH1M_AVG,status,SR1M_AVG,status,TA1M_AVG,status,W1dAve1m,status,W1sAve1m,
2007-12-04, 00:00:00,VALID,917.909,VALID,0,VALID,83.271,VALID,-0.0339617,VALID,20.679,VALID,104,VALID,1.34482,
2007-12-04, 00:01:00,VALID,917.901,VALID,0,VALID,83.5152,VALID,0,VALID,20.6663,VALID,117,VALID,1.40701,
2007-12-04, 00:02:00,VALID,917.869,VALID,0,VALID,83.7021,VALID,-0.0339617,VALID,20.6014,VALID,117,VALID,1.20206,
2007-12-04, 00:03:00,VALID,917.858,VALID,0,VALID,83.8598,VALID,-0.0169808,VALID,20.5655,VALID,121,VALID,1.49037,
2007-12-04, 00:04:00,VALID,917.828,VALID,0,VALID,84.0442,VALID,-0.0509425,VALID,20.5398,VALID,143,VALID,2.18418,
2007-12-04, 00:05:00,VALID,917.819,VALID,0,VALID,83.9094,VALID,-0.0509425,VALID,20.5495,VALID,127,VALID,2.10547,
2007-12-04, 00:06:00,VALID,917.794,VALID,0,VALID,83.8585,VALID,-0.0169808,VALID,20.562,VALID,140,VALID,2.3085,
2007-12-04, 00:07:00,VALID,917.798,VALID,0,VALID,83.5622,VALID,-0.0169808,VALID,20.5852,VALID,119,VALID,1.75,
2007-12-04, 00:08:00,VALID,917.779,VALID,0,VALID,82.9989,VALID,0,VALID,20.6496,VALID,116,VALID,2.40415,
2007-12-04, 00:09:00,VALID,917.779,VALID,0,VALID,82.5767,VALID,0,VALID,20.7272,VALID,142,VALID,2.40195,
2007-12-04, 00:10:00,VALID,917.775,VALID,0,VALID,82.3885,VALID,0,VALID,20.7632,VALID,142,VALID,2.02846,
2007-12-04, 00:11:00,VALID,917.767,VALID,0,VALID,82.0859,VALID,0,VALID,20.8024,VALID,151,VALID,2.41461,
2007-12-04, 00:12:00,VALID,917.778,VALID,0,VALID,82.1304,VALID,0,VALID,20.8213,VALID,129,VALID,1.27017,
2007-12-04, 00:13:00,VALID,917.756,VALID,0,VALID,82.2194,VALID,-0.0169808,VALID,20.8124,VALID,140,VALID,1.35247,
2007-12-04, 00:14:00,VALID,917.736,VALID,0,VALID,82.433,VALID,-0.0169808,VALID,20.7732,VALID,97,VALID,2.05195,
2007-12-04, 00:15:00,VALID,917.727,VALID,0,VALID,82.5411,VALID,0,VALID,20.7632,VALID,96,VALID,2.38121,
2007-12-04, 00:16:00,VALID,917.712,VALID,0,VALID,82.6924,VALID,-0.0169808,VALID,20.7472,VALID,135,VALID,1.72101,
2007-12-04, 00:17:00,VALID,917.685,VALID,0,VALID,82.7242,VALID,-0.0169808,VALID,20.7345,VALID,132,VALID,1.67378,
2007-12-04, 00:18:00,VALID,917.672,VALID,0,VALID,83.0002,VALID,-0.0339617,VALID,20.6853,VALID,144,VALID,1.2037,
2007-12-04, 00:19:00,VALID,917.636,VALID,0,VALID,83.3028,VALID,-0.0849042,VALID,20.6301,VALID,143,VALID,1.70234,
2007-12-04, 00:20:00,VALID,917.629,VALID,0,VALID,83.7072,VALID,-0.0509425,VALID,20.5787,VALID,146,VALID,1.49107,
2007-12-04, 00:21:00,VALID,917.623,VALID,0,VALID,83.9501,VALID,-0.0339617,VALID,20.5398,VALID,157,VALID,1.62682,
2007-12-04, 00:22:00,VALID,917.623,VALID,0,VALID,83.9399,VALID,-0.0339617,VALID,20.51,VALID,140,VALID,1.59356,
2007-12-04, 00:23:00,VALID,917.61,VALID,0,VALID,83.9831,VALID,-0.0509425,VALID,20.517,VALID,127,VALID,1.48722,
2007-12-04, 00:24:00,VALID,917.613,VALID,0,VALID,83.8204,VALID,-0.0509425,VALID,20.5657,VALID,144,VALID,1.28525,
2007-12-04, 00:25:00,VALID,917.588,VALID,0,VALID,83.9946,VALID,-0.0339617,VALID,20.559,VALID,147,VALID,1.59585,
2007-12-04, 00:26:00,VALID,917.575,VALID,0,VALID,84.3354,VALID,-0.0339617,VALID,20.5006,VALID,149,VALID,1.58327,
2007-12-04, 00:27:00,VALID,917.565,VALID,0,VALID,84.3888,VALID,-0.0339617,VALID,20.4646,VALID,152,VALID,1.80413,
2007-12-04, 00:28:00,VALID,917.568,VALID,0,VALID,83.8903,VALID,-0.0339617,VALID,20.546,VALID,145,VALID,1.65243,
2007-12-04, 00:29:00,VALID,917.558,VALID,0,VALID,83.6945,VALID,-0.0679233,VALID,20.6114,VALID,147,VALID,1.8956,
2007-12-04, 00:30:00,VALID,917.567,VALID,0,VALID,83.8636,VALID,-0.0679233,VALID,20.5982,VALID,136,VALID,1.90064,
2007-12-04, 00:31:00,VALID,917.562,VALID,0,VALID,83.6805,VALID,-0.0339617,VALID,20.5755,VALID,139,VALID,2.19779,
2007-12-04, 00:32:00,VALID,917.57,VALID,0,VALID,83.7415,VALID,0,VALID,20.5944,VALID,139,VALID,1.63643,
2007-12-04, 00:33:00,VALID,917.55,VALID,0,VALID,83.9094,VALID,0,VALID,20.5555,VALID,150,VALID,1.51788,
2007-12-04, 00:34:00,VALID,917.542,VALID,0,VALID,84.1128,VALID,-0.0509425,VALID,20.5333,VALID,153,VALID,1.86211,
2007-12-04, 00:35:00,VALID,917.512,VALID,0,VALID,84.2934,VALID,0,VALID,20.5073,VALID,153,VALID,1.45585,
2007-12-04, 00:36:00,VALID,917.508,VALID,0,VALID,84.5782,VALID,-0.0679233,VALID,20.4519,VALID,144,VALID,1.44215,
2007-12-04, 00:37:00,VALID,917.494,VALID,0,VALID,84.8554,VALID,-0.0339617,VALID,20.4035,VALID,139,VALID,1.28316,
2007-12-04, 00:38:00,VALID,917.484,VALID,0,VALID,85.1187,VALID,-0.0679233,VALID,20.3448,VALID,140,VALID,1.54045,
2007-12-04, 00:39:00,VALID,917.472,VALID,0,VALID,85.2636,VALID,-0.0339617,VALID,20.3093,VALID,135,VALID,1.69851,
2007-12-04, 00:40:00,VALID,917.451,VALID,0,VALID,85.2433,VALID,-0.0509425,VALID,20.3158,VALID,137,VALID,1.53025,
2007-12-04, 00:41:00,VALID,917.443,VALID,0,VALID,85.1797,VALID,-0.0169808,VALID,20.3353,VALID,140,VALID,1.94097,
2007-12-04, 00:42:00,VALID,917.434,VALID,0,VALID,85.2776,VALID,0.0339617,VALID,20.3245,VALID,132,VALID,1.766,
2007-12-04, 00:43:00,VALID,917.435,VALID,0,VALID,85.4378,VALID,0.0169808,VALID,20.2853,VALID,138,VALID,2.0484,
2007-12-04, 00:44:00,VALID,917.419,VALID,0,VALID,85.4785,VALID,0.0509425,VALID,20.2794,VALID,154,VALID,1.65465,
2007-12-04, 00:45:00,VALID,917.4,VALID,0,VALID,85.4684,VALID,0,VALID,20.2824,VALID,151,VALID,1.81566,
2007-12-04, 00:46:00,VALID,917.39,VALID,0,VALID,85.3921,VALID,0.0509425,VALID,20.2983,VALID,145,VALID,1.66992,
2007-12-04, 00:47:00,VALID,917.371,VALID,0,VALID,85.4773,VALID,0.0509425,VALID,20.2923,VALID,127,VALID,1.85387,
2007-12-04, 00:48:00,VALID,917.358,VALID,0,VALID,85.4277,VALID,0.0339617,VALID,20.2831,VALID,104,VALID,1.99855,
2007-12-04, 00:49:00,VALID,917.343,VALID,0,VALID,85.5523,VALID,0.0339617,VALID,20.2631,VALID,130,VALID,1.63209,
2007-12-04, 00:50:00,VALID,917.299,VALID,0,VALID,85.6947,VALID,0.0169808,VALID,20.2569,VALID,137,VALID,1.83239,
2007-12-04, 00:51:00,VALID,917.284,VALID,0,VALID,85.5739,VALID,0.0169808,VALID,20.2689,VALID,135,VALID,2.0043,
2007-12-04, 00:52:00,VALID,917.264,VALID,0,VALID,85.5268,VALID,0.0679233,VALID,20.2791,VALID,128,VALID,1.42715,
2007-12-04, 00:53:00,VALID,917.239,VALID,0,VALID,85.5828,VALID,0.0509425,VALID,20.2367,VALID,140,VALID,2.09263,
2007-12-04, 00:54:00,VALID,917.245,VALID,0,VALID,85.8346,VALID,0.0169808,VALID,20.2017,VALID,132,VALID,1.70636,
2007-12-04, 00:55:00,VALID,917.245,VALID,0,VALID,86.2122,VALID,0.0509425,VALID,20.1136,VALID,126,VALID,2.2606,
2007-12-04, 00:56:00,VALID,917.215,VALID,0,VALID,85.565,VALID,0.0339617,VALID,20.1401,VALID,145,VALID,2.43862,
2007-12-04, 00:57:00,VALID,917.225,VALID,0,VALID,84.9139,VALID,-0.0849042,VALID,20.2582,VALID,129,VALID,2.34542,
2007-12-04, 00:58:00,VALID,917.26,VALID,0,VALID,84.5045,VALID,-0.0339617,VALID,20.3231,VALID,103,VALID,2.24562,
2007-12-04, 00:59:00,VALID,917.273,VALID,0,VALID,84.9775,VALID,-0.118866,VALID,20.3009,VALID,116,VALID,1.39118,
2007-12-04, 01:00:00,VALID,917.244,VALID,0,VALID,85.6248,VALID,-0.135847,VALID,20.223,VALID,138,VALID,1.60309,
2007-12-04, 01:01:00,VALID,917.243,VALID,0,VALID,86.122,VALID,-0.101885,VALID,20.1516,VALID,146,VALID,1.81784,
2007-12-04, 01:02:00,VALID,917.217,VALID,0,VALID,86.2936,VALID,-0.101885,VALID,20.1254,VALID,149,VALID,1.4442,
2007-12-04, 01:03:00,VALID,917.21,VALID,0,VALID,86.4462,VALID,-0.101885,VALID,20.0962,VALID,142,VALID,1.40643,
2007-12-04, 01:04:00,VALID,917.205,VALID,0,VALID,86.6268,VALID,-0.0849042,VALID,20.0767,VALID,138,VALID,1.70908,
2007-12-04, 01:05:00,VALID,917.185,VALID,0,VALID,86.6395,VALID,-0.101885,VALID,20.07,VALID,150,VALID,1.73619,
2007-12-04, 01:06:00,VALID,917.162,VALID,0,VALID,86.4335,VALID,-0.0679233,VALID,20.0829,VALID,141,VALID,1.75382,
2007-12-04, 01:07:00,VALID,917.17,VALID,0,VALID,85.7468,VALID,-0.0849042,VALID,20.1476,VALID,104,VALID,1.32976,
2007-12-04, 01:08:00,VALID,917.178,VALID,0,VALID,85.9249,VALID,-0.0849042,VALID,20.1416,VALID,134,VALID,2.16879,
2007-12-04, 01:09:00,VALID,917.167,VALID,0,VALID,85.6095,VALID,-0.0679233,VALID,20.197,VALID,129,VALID,1.92511,
2007-12-04, 01:10:00,VALID,917.152,VALID,0,VALID,85.5116,VALID,-0.0849042,VALID,20.2257,VALID,141,VALID,2.16727,
2007-12-04, 01:11:00,VALID,917.144,VALID,0,VALID,85.5993,VALID,-0.0849042,VALID,20.2257,VALID,153,VALID,1.61044,
2007-12-04, 01:12:00,VALID,917.133,VALID,0,VALID,85.579,VALID,-0.0169808,VALID,20.2382,VALID,125,VALID,1.68118,
2007-12-04, 01:13:00,VALID,917.141,VALID,0,VALID,85.7786,VALID,0,VALID,20.208,VALID,139,VALID,1.65092,
2007-12-04, 01:14:00,VALID,917.157,VALID,0,VALID,85.9528,VALID,0.0169808,VALID,20.1818,VALID,127,VALID,1.35098,
2007-12-04, 01:15:00,VALID,917.172,VALID,0,VALID,86.2161,VALID,0,VALID,20.1366,VALID,129,VALID,1.76842,
2007-12-04, 01:16:00,VALID,917.174,VALID,0,VALID,86.3114,VALID,0.0169808,VALID,20.1304,VALID,143,VALID,1.50365,
2007-12-04, 01:17:00,VALID,917.171,VALID,0,VALID,86.5136,VALID,0,VALID,20.0947,VALID,136,VALID,1.60065,
2007-12-04, 01:18:00,VALID,917.155,VALID,0,VALID,86.7908,VALID,0.0169808,VALID,20.0557,VALID,137,VALID,1.89684,
2007-12-04, 01:19:00,VALID,917.141,VALID,0,VALID,86.9142,VALID,0.0169808,VALID,20.0295,VALID,143,VALID,1.1319,
2007-12-04, 01:20:00,VALID,917.126,VALID,0,VALID,87.2461,VALID,0.0509425,VALID,19.9708,VALID,118,VALID,1.27378,
2007-12-04, 01:21:00,VALID,917.101,VALID,0,VALID,87.6873,VALID,0.0509425,VALID,19.896,VALID,116,VALID,1.50937,
2007-12-04, 01:22:00,VALID,917.088,VALID,0,VALID,87.9137,VALID,0.0509425,VALID,19.8538,VALID,138,VALID,1.1012,
2007-12-04, 01:23:00,VALID,917.097,VALID,0,VALID,88.0548,VALID,0.0849042,VALID,19.8308,VALID,112,VALID,1.61621,
2007-12-04, 01:24:00,VALID,917.068,VALID,0,VALID,88.3218,VALID,0.0509425,VALID,19.7697,VALID,124,VALID,1.76309,
2007-12-04, 01:25:00,VALID,917.044,VALID,0,VALID,88.3282,VALID,0.0339617,VALID,19.7762,VALID,110,VALID,2.28125,
2007-12-04, 01:26:00,VALID,917.034,VALID,0,VALID,88.0103,VALID,0.0169808,VALID,19.8473,VALID,135,VALID,2.50654,
2007-12-04, 01:27:00,VALID,917.027,VALID,0,VALID,87.7979,VALID,-0.0169808,VALID,19.9007,VALID,112,VALID,1.39134,
2007-12-04, 01:28:00,VALID,917.005,VALID,0,VALID,87.6466,VALID,-0.0849042,VALID,19.8713,VALID,102,VALID,2.35007,
2007-12-04, 01:29:00,VALID,916.996,VALID,0,VALID,87.5487,VALID,-0.0509425,VALID,19.8393,VALID,94,VALID,1.95767,
2007-12-04, 01:30:00,VALID,916.983,VALID,0,VALID,87.7153,VALID,-0.0509425,VALID,19.8288,VALID,95,VALID,2.13619,
2007-12-04, 01:31:00,VALID,916.97,VALID,0,VALID,87.2283,VALID,-0.0169808,VALID,19.9422,VALID,87,VALID,2.1195,
2007-12-04, 01:32:00,VALID,916.965,VALID,0,VALID,86.8442,VALID,-0.0339617,VALID,20.0268,VALID,84,VALID,2.23011,
2007-12-04, 01:33:00,VALID,916.984,VALID,0,VALID,86.6726,VALID,-0.0509425,VALID,20.0632,VALID,98,VALID,2.04497,
2007-12-04, 01:34:00,VALID,916.983,VALID,0,VALID,86.9549,VALID,-0.0849042,VALID,20.0238,VALID,132,VALID,2.16334,
2007-12-04, 01:35:00,VALID,916.979,VALID,0,VALID,87.447,VALID,-0.101885,VALID,19.9596,VALID,124,VALID,1.73418,
2007-12-04, 01:36:00,VALID,916.924,VALID,0,VALID,87.653,VALID,-0.0679233,VALID,19.8848,VALID,128,VALID,2.34844,
2007-12-04, 01:37:00,VALID,916.923,VALID,0,VALID,87.3389,VALID,-0.0849042,VALID,19.8947,VALID,102,VALID,1.90116,
2007-12-04, 01:38:00,VALID,916.911,VALID,0,VALID,87.6441,VALID,-0.101885,VALID,19.7936,VALID,91,VALID,2.04249,
2007-12-04, 01:39:00,VALID,916.891,VALID,0,VALID,87.3236,VALID,-0.0509425,VALID,19.8166,VALID,124,VALID,1.77344,
2007-12-04, 01:40:00,VALID,916.886,VALID,0,VALID,86.5963,VALID,-0.0679233,VALID,19.8875,VALID,104,VALID,2.54528,
2007-12-04, 01:41:00,VALID,916.89,VALID,0,VALID,86.23,VALID,-0.0509425,VALID,19.9559,VALID,104,VALID,2.6339,
2007-12-04, 01:42:00,VALID,916.854,VALID,0,VALID,85.4086,VALID,-0.0339617,VALID,20.046,VALID,104,VALID,2.99414,
2007-12-04, 01:43:00,VALID,916.841,VALID,0,VALID,84.638,VALID,0,VALID,20.1952,VALID,111,VALID,1.71987,
2007-12-04, 01:44:00,VALID,916.817,VALID,0,VALID,84.5706,VALID,-0.0169808,VALID,20.2307,VALID,120,VALID,1.42588,
2007-12-04, 01:45:00,VALID,916.826,VALID,0,VALID,84.4714,VALID,-0.0169808,VALID,20.2339,VALID,122,VALID,2.14648,
2007-12-04, 01:46:00,VALID,916.823,VALID,0,VALID,85.181,VALID,0,VALID,20.2504,VALID,122,VALID,1.31764,
2007-12-04, 01:47:00,VALID,916.79,VALID,0,VALID,85.8371,VALID,0,VALID,20.1561,VALID,137,VALID,1.61947,
2007-12-04, 01:48:00,VALID,916.776,VALID,0,VALID,87.0337,VALID,-0.0339617,VALID,20.059,VALID,153,VALID,1.99609,
2007-12-04, 01:49:00,VALID,916.785,VALID,0,VALID,87.5347,VALID,-0.0169808,VALID,19.9521,VALID,138,VALID,1.75038,
2007-12-04, 01:50:00,VALID,916.764,VALID,0,VALID,87.8157,VALID,0,VALID,19.8638,VALID,138,VALID,1.9335,
2007-12-04, 01:51:00,VALID,916.754,VALID,0,VALID,87.7331,VALID,0,VALID,19.8288,VALID,141,VALID,2.31864,
2007-12-04, 01:52:00,VALID,916.742,VALID,0,VALID,87.3046,VALID,-0.0169808,VALID,19.871,VALID,131,VALID,2.01314,
2007-12-04, 01:53:00,VALID,916.749,VALID,0,VALID,86.6802,VALID,0,VALID,19.91,VALID,100,VALID,2.19119,
2007-12-04, 01:54:00,VALID,916.731,VALID,0,VALID,86.3585,VALID,0.0169808,VALID,19.9392,VALID,96,VALID,1.92587,
2007-12-04, 01:55:00,VALID,916.711,VALID,0,VALID,86.0991,VALID,-0.0339617,VALID,20.0041,VALID,121,VALID,2.71522,
2007-12-04, 01:56:00,VALID,916.705,VALID,0,VALID,85.8575,VALID,-0.0169808,VALID,20.0627,VALID,69,VALID,2.07528,
2007-12-04, 01:57:00,VALID,916.714,VALID,0,VALID,85.3539,VALID,0,VALID,20.0789,VALID,81,VALID,2.04306,
2007-12-04, 01:58:00,VALID,916.71,VALID,0,VALID,84.9788,VALID,-0.0169808,VALID,20.1528,VALID,105,VALID,1.33841,
2007-12-04, 01:59:00,VALID,916.717,VALID,0,VALID,85.209,VALID,0,VALID,20.1371,VALID,115,VALID,1.7431,
2007-12-04, 02:00:00,VALID,916.71,VALID,0,VALID,85.3463,VALID,-0.0169808,VALID,20.0657,VALID,93,VALID,1.95945,
2007-12-04, 02:01:00,VALID,916.699,VALID,0,VALID,85.5001,VALID,0,VALID,19.9968,VALID,87,VALID,2.00218,
2007-12-04, 02:02:00,VALID,916.675,VALID,0,VALID,85.1428,VALID,0,VALID,20.0625,VALID,85,VALID,2.00104,
2007-12-04, 02:03:00,VALID,916.666,VALID,0,VALID,85.036,VALID,-0.0509425,VALID,20.0852,VALID,81,VALID,1.95778,
2007-12-04, 02:04:00,VALID,916.641,VALID,0,VALID,84.905,VALID,-0.0169808,VALID,20.0817,VALID,89,VALID,2.92791,
2007-12-04, 02:05:00,VALID,916.645,VALID,0,VALID,84.2705,VALID,0,VALID,20.205,VALID,100,VALID,3.4574,
2007-12-04, 02:06:01,VALID,916.627,VALID,0,VALID,84.067,VALID,-0.0339617,VALID,20.2958,VALID,97,VALID,2.97619,
2007-12-04, 02:07:00,VALID,916.605,VALID,0,VALID,84.0416,VALID,0,VALID,20.3051,VALID,94,VALID,2.65925,
2007-12-04, 02:08:00,VALID,916.57,VALID,0,VALID,83.1909,VALID,-0.0169808,VALID,20.4094,VALID,85,VALID,3.70934,
2007-12-04, 02:09:00,VALID,916.578,VALID,0,VALID,82.7217,VALID,0,VALID,20.4938,VALID,78,VALID,3.99009,
2007-12-04, 02:10:00,VALID,916.596,VALID,0,VALID,82.7509,VALID,0,VALID,20.533,VALID,81,VALID,3.02109,
2007-12-04, 02:11:00,VALID,916.614,VALID,0,VALID,82.8158,VALID,0,VALID,20.4571,VALID,78,VALID,2.80196,
2007-12-04, 02:12:00,VALID,916.635,VALID,0,VALID,83.2659,VALID,0,VALID,20.4254,VALID,86,VALID,2.23514,
2007-12-04, 02:13:01,VALID,916.671,VALID,0,VALID,83.5851,VALID,0,VALID,20.4181,VALID,91,VALID,1.85792,
2007-12-04, 02:14:01,VALID,916.675,VALID,0,VALID,84.1599,VALID,0.0169808,VALID,20.3408,VALID,112,VALID,1.48633,
2007-12-04, 02:15:00,VALID,916.649,VALID,0,VALID,84.4498,VALID,0.0169808,VALID,20.2791,VALID,99,VALID,2.07161,
2007-12-04, 02:16:00,VALID,916.635,VALID,0,VALID,84.2273,VALID,0,VALID,20.2988,VALID,86,VALID,3.04936,
2007-12-04, 02:17:01,VALID,916.633,VALID,0,VALID,83.9653,VALID,0.0169808,VALID,20.3308,VALID,84,VALID,2.30051,
2007-12-04, 02:18:00,VALID,916.634,VALID,0,VALID,83.9017,VALID,0,VALID,20.3375,VALID,94,VALID,2.01563,
2007-12-04, 02:19:00,VALID,916.615,VALID,0,VALID,83.9793,VALID,0.0169808,VALID,20.3145,VALID,101,VALID,2.18285,
2007-12-04, 02:20:00,VALID,916.574,VALID,0,VALID,83.7886,VALID,0,VALID,20.351,VALID,93,VALID,2.48084,
2007-12-04, 02:21:00,VALID,916.567,VALID,0,VALID,83.9373,VALID,0,VALID,20.3438,VALID,114,VALID,2.09877,
2007-12-04, 02:22:00,VALID,916.548,VALID,0,VALID,84.0785,VALID,-0.0169808,VALID,20.3383,VALID,117,VALID,2.44913,
2007-12-04, 02:23:00,VALID,916.534,VALID,0,VALID,83.9513,VALID,0,VALID,20.348,VALID,111,VALID,2.85795,
2007-12-04, 02:24:00,VALID,916.535,VALID,0,VALID,83.6322,VALID,0.0339617,VALID,20.4059,VALID,106,VALID,2.23609,
2007-12-04, 02:25:00,VALID,916.529,VALID,0,VALID,83.8356,VALID,0.0169808,VALID,20.4116,VALID,97,VALID,2.28379,
2007-12-04, 02:26:00,VALID,916.515,VALID,0,VALID,84.3481,VALID,0.0169808,VALID,20.3543,VALID,102,VALID,1.98952,
2007-12-04, 02:27:00,VALID,916.52,VALID,0,VALID,84.7118,VALID,0.0169808,VALID,20.2821,VALID,116,VALID,1.5367,
2007-12-04, 02:28:01,VALID,916.504,VALID,0,VALID,85.2242,VALID,0,VALID,20.2397,VALID,124,VALID,1.65625,
2007-12-04, 02:29:00,VALID,916.49,VALID,0,VALID,85.8753,VALID,0,VALID,20.175,VALID,129,VALID,1.63192,
2007-12-04, 02:30:01,VALID,916.466,VALID,0,VALID,86.2402,VALID,0,VALID,20.1236,VALID,124,VALID,2.33398,
2007-12-04, 02:31:00,VALID,916.465,VALID,0,VALID,86.4081,VALID,0.0169808,VALID,20.0812,VALID,125,VALID,2.05832,
2007-12-04, 02:32:00,VALID,916.44,VALID,0,VALID,86.0291,VALID,0,VALID,20.0907,VALID,94,VALID,2.71336,
2007-12-04, 02:33:00,VALID,916.464,VALID,0,VALID,85.8943,VALID,0,VALID,20.1333,VALID,130,VALID,2.08352,
2007-12-04, 02:34:00,VALID,916.458,VALID,0,VALID,85.9834,VALID,0.0169808,VALID,20.1331,VALID,124,VALID,2.26953,
2007-12-04, 02:35:00,VALID,916.444,VALID,0,VALID,85.9935,VALID,0,VALID,20.1426,VALID,123,VALID,2.38815,
2007-12-04, 02:36:00,VALID,916.451,VALID,0,VALID,85.6756,VALID,0.0169808,VALID,20.1618,VALID,112,VALID,3.37837,
2007-12-04, 02:37:00,VALID,916.381,VALID,0,VALID,84.8694,VALID,0,VALID,20.2596,VALID,113,VALID,3.37038,
2007-12-04, 02:38:00,VALID,916.341,VALID,0,VALID,83.1604,VALID,0,VALID,20.4257,VALID,76,VALID,4.39989,
2007-12-04, 02:39:00,VALID,916.303,VALID,0,VALID,81.5747,VALID,0.0169808,VALID,20.6812,VALID,73,VALID,3.10603,
2007-12-04, 02:40:00,VALID,916.297,VALID,0,VALID,81.3433,VALID,-0.0169808,VALID,20.7629,VALID,87,VALID,2.98996,
2007-12-04, 02:41:00,VALID,916.298,VALID,0,VALID,81.4692,VALID,0,VALID,20.7991,VALID,69,VALID,2.73233,
2007-12-04, 02:42:01,VALID,916.295,VALID,0,VALID,81.7553,VALID,0.0169808,VALID,20.7721,VALID,56,VALID,3.38245,
2007-12-04, 02:43:00,VALID,916.325,VALID,0,VALID,82.3847,VALID,0.0339617,VALID,20.7397,VALID,111,VALID,2.23307,
2007-12-04, 02:44:00,VALID,916.293,VALID,0,VALID,83.168,VALID,0.0169808,VALID,20.6358,VALID,115,VALID,2.11186,
2007-12-04, 02:45:00,VALID,916.25,VALID,0,VALID,83.931,VALID,0.0339617,VALID,20.5222,VALID,134,VALID,2.30806,
2007-12-04, 02:46:01,VALID,916.237,VALID,0,VALID,84.3379,VALID,0.0169808,VALID,20.4051,VALID,103,VALID,2.43211,
2007-12-04, 02:47:00,VALID,916.199,VALID,0,VALID,84.6405,VALID,0,VALID,20.3213,VALID,111,VALID,2.09611,
2007-12-04, 02:48:00,VALID,916.164,VALID,0,VALID,84.6367,VALID,0.0169808,VALID,20.2956,VALID,125,VALID,1.631,
2007-12-04, 02:49:00,VALID,916.153,VALID,0,VALID,84.2057,VALID,0,VALID,20.3086,VALID,115,VALID,2.18537,
2007-12-04, 02:50:01,VALID,916.133,VALID,0,VALID,83.6271,VALID,0.0169808,VALID,20.3962,VALID,137,VALID,2.71174,
2007-12-04, 02:51:00,VALID,916.156,VALID,0,VALID,83.8127,VALID,0.0509425,VALID,20.4668,VALID,107,VALID,2.56523,
2007-12-04, 02:52:00,VALID,916.147,VALID,0,VALID,84.3786,VALID,0.0339617,VALID,20.4214,VALID,108,VALID,2.02195,
2007-12-04, 02:53:00,VALID,916.129,VALID,0,VALID,84.8783,VALID,0.0509425,VALID,20.3535,VALID,109,VALID,1.62536,
2007-12-04, 02:54:01,VALID,916.114,VALID,0,VALID,85.2585,VALID,0.0169808,VALID,20.2781,VALID,125,VALID,1.24364,
2007-12-04, 02:55:01,VALID,916.103,VALID,0,VALID,85.6171,VALID,0.0169808,VALID,20.2402,VALID,126,VALID,1.6715,
2007-12-04, 02:56:01,VALID,916.104,VALID,0,VALID,85.7265,VALID,0,VALID,20.2112,VALID,126,VALID,1.73828,
2007-12-04, 02:57:01,VALID,916.101,VALID,0,VALID,85.8867,VALID,0,VALID,20.195,VALID,126,VALID,1.57852,
2007-12-04, 02:58:01,VALID,916.112,VALID,0,VALID,85.9427,VALID,0.0169808,VALID,20.169,VALID,130,VALID,1.67702,
2007-12-04, 02:59:00,VALID,916.088,VALID,0,VALID,85.8867,VALID,0,VALID,20.1623,VALID,130,VALID,1.59718,
2007-12-04, 03:00:01,VALID,916.067,VALID,0,VALID,85.813,VALID,0,VALID,20.1785,VALID,105,VALID,1.74077,
2007-12-04, 03:01:01,VALID,916.072,VALID,0,VALID,85.9185,VALID,0,VALID,20.1718,VALID,116,VALID,1.62536,
2007-12-04, 03:02:01,VALID,916.041,VALID,0,VALID,85.9859,VALID,0,VALID,20.1723,VALID,128,VALID,1.90807,
2007-12-04, 03:03:01,VALID,916.039,VALID,0,VALID,85.9617,VALID,0,VALID,20.159,VALID,116,VALID,2.12411,
2007-12-04, 03:04:01,VALID,916.01,VALID,0,VALID,85.9503,VALID,0.0169808,VALID,20.162,VALID,107,VALID,1.84596,
2007-12-04, 03:05:01,VALID,916.009,VALID,0,VALID,85.9427,VALID,0.0169808,VALID,20.1593,VALID,124,VALID,1.27046,
2007-12-04, 03:06:01,VALID,915.985,VALID,0,VALID,85.888,VALID,0,VALID,20.1588,VALID,131,VALID,1.7619,
2007-12-04, 03:07:01,VALID,915.982,VALID,0,VALID,85.8206,VALID,0.0169808,VALID,20.1623,VALID,123,VALID,2.42169,
2007-12-04, 03:08:01,VALID,915.965,VALID,0,VALID,85.2433,VALID,0.0339617,VALID,20.2234,VALID,108,VALID,2.79353,
2007-12-04, 03:09:00,VALID,915.979,VALID,0,VALID,85.2687,VALID,0,VALID,20.2529,VALID,103,VALID,2.54706,
2007-12-04, 03:10:00,VALID,915.986,VALID,0,VALID,85.4506,VALID,0,VALID,20.2467,VALID,115,VALID,1.7699,
2007-12-04, 03:11:00,VALID,915.969,VALID,0,VALID,85.6616,VALID,0.0339617,VALID,20.214,VALID,105,VALID,1.82205,
2007-12-04, 03:12:00,VALID,915.945,VALID,0,VALID,85.916,VALID,0,VALID,20.188,VALID,103,VALID,1.71715,
2007-12-04, 03:13:00,VALID,915.928,VALID,0,VALID,85.9745,VALID,0,VALID,20.1458,VALID,120,VALID,2.49092,
2007-12-04, 03:14:00,VALID,915.902,VALID,0,VALID,85.5472,VALID,0,VALID,20.1815,VALID,101,VALID,2.22361,
2007-12-04, 03:15:00,VALID,915.916,VALID,0,VALID,85.4836,VALID,0,VALID,20.221,VALID,112,VALID,2.2218,
2007-12-04, 03:16:00,VALID,915.928,VALID,0,VALID,85.7252,VALID,0.0169808,VALID,20.201,VALID,121,VALID,1.73077,
2007-12-04, 03:17:00,VALID,915.929,VALID,0,VALID,85.7863,VALID,-0.0339617,VALID,20.1558,VALID,116,VALID,2.0968,
2007-12-04, 03:18:00,VALID,915.913,VALID,0,VALID,85.5599,VALID,0,VALID,20.1523,VALID,115,VALID,2.16738,
2007-12-04, 03:19:00,VALID,915.911,VALID,0,VALID,85.3056,VALID,0.0169808,VALID,20.2015,VALID,94,VALID,1.85,
2007-12-04, 03:20:00,VALID,915.899,VALID,0,VALID,85.3908,VALID,0,VALID,20.1942,VALID,105,VALID,2.31726,
2007-12-04, 03:21:00,VALID,915.897,VALID,0,VALID,85.7634,VALID,-0.0169808,VALID,20.1758,VALID,103,VALID,1.75654,
2007-12-04, 03:22:00,VALID,915.868,VALID,0,VALID,85.8715,VALID,0,VALID,20.1134,VALID,115,VALID,2.41992,
2007-12-04, 03:23:00,VALID,915.855,VALID,0,VALID,86.1003,VALID,-0.0169808,VALID,20.0904,VALID,124,VALID,1.61065,
2007-12-04, 03:24:00,VALID,915.835,VALID,0,VALID,86.4513,VALID,0,VALID,20.0287,VALID,108,VALID,1.79883,
2007-12-04, 03:25:00,VALID,915.832,VALID,0,VALID,86.8404,VALID,-0.0169808,VALID,19.9611,VALID,129,VALID,1.96802,
2007-12-04, 03:26:00,VALID,915.811,VALID,0,VALID,86.8989,VALID,0,VALID,19.8735,VALID,117,VALID,2.19322,
2007-12-04, 03:27:00,VALID,915.786,VALID,0,VALID,86.3534,VALID,0.0169808,VALID,19.873,VALID,125,VALID,1.93731,
2007-12-04, 03:28:00,VALID,915.78,VALID,0,VALID,86.1614,VALID,0.0169808,VALID,19.9184,VALID,112,VALID,2.12557,
2007-12-04, 03:29:00,VALID,915.776,VALID,0,VALID,86.1614,VALID,0,VALID,19.9479,VALID,133,VALID,1.65187,
2007-12-04, 03:30:00,VALID,915.747,VALID,0,VALID,86.1143,VALID,0.0169808,VALID,19.9768,VALID,126,VALID,1.57887,
2007-12-04, 03:31:00,VALID,915.761,VALID,0,VALID,86.0609,VALID,0.0339617,VALID,19.9898,VALID,120,VALID,2.04306,
2007-12-04, 03:32:00,VALID,915.759,VALID,0,VALID,86.0062,VALID,0,VALID,20.0063,VALID,129,VALID,2.05801,
2007-12-04, 03:33:00,VALID,915.763,VALID,0,VALID,86.1944,VALID,-0.0169808,VALID,20.0001,VALID,141,VALID,1.83746,
2007-12-04, 03:34:00,VALID,915.758,VALID,0,VALID,86.4895,VALID,0.0679233,VALID,19.9606,VALID,121,VALID,1.69707,
2007-12-04, 03:35:00,VALID,915.767,VALID,0,VALID,86.6103,VALID,0.0169808,VALID,19.9055,VALID,127,VALID,2.45937,